Погода в Тулькане

Эквадор     0°48′46″N   77°42′57″W
темп.,
°C
ветер,
м/с
пор.,
м/с
влажн.,
%
обл.,
%
осадки,
мм/ч
давл.,
гПа
погр.,
м
25 января, пн
пн2501:00+7ююв1198100 0.0 101399
04:00+6вюв019998 0.3 101143
07:00+8в229999 0.4 1013130
10:00+11вюв3385100 0.3 1014543
13:00+9в3496100 1.4 1012342
16:00+11юв2386100 0.8 1009493
19:00+8юв1298100 1.2 101189
22:00+6ююв1199100 0.0 101454
26 января, вт
вт2601:00+7юв1199100 0.0 101384
04:00+7вюв1198100 0.0 101296
07:00+7в1196100 0.0 1013106
10:00+12вюв3378100 0.1 1014706
13:00+13юв337891 3.0 1011692
16:00+11юв348797 4.1 1009492
19:00+9юв239698 4.9 1012147
22:00+7юв2299100 0.2 1014106
27 января, ср
ср2701:00+7ююв1198100 0.2 101395
04:00+7всв1198100 0.3 1012112
07:00+7юв1195100 0.4 101469
10:00+11вюв3382100 0.1 1014572
13:00+14юв4472100 1.5 1011940
16:00+12юв338295 2.7 1009667
19:00+8юв229580 3.9 101129
22:00+7юв119997 0.1 101437
28 января, чт
чт2801:00+7ююв119799 0.1 1014119
04:00+5зсз119396 0.0 101222
07:00+7з018667 0.0 101422
10:00+13вюв226464 0.0 1014929
13:00+16в225178 0.1 10111633
16:00+14в127491 0.9 1008658
19:00+10ссв129696 2.3 1011133
22:00+9св119792 1.4 1013107
29 января, пт
пт2901:00+7всв119984 2.4 101236
04:00+7ссз119771 0.5 101175
07:00+7св009664 0.6 101368
10:00+12вюв228066 0.1 1013569
13:00+16в226047 0.3 10101296
16:00+14всв126671 0.8 10071020
19:00+10вюв239679 2.3 1009200
22:00+9вюв229994 0.9 1012107